EW4496 Weather Reports


time (UTC)temp
F
wind
direction
speed
knots
gust
knots
rain 1hr
in
rain 24hr
in
rain mn
in
humidity
%
barometer
mb
20260901011515 74 1 1.7 10.4 0.00 0.00 0.00 52 1009.9
20260901010021 75 319 2.6 7.8 0.00 0.00 0.00 49 1009.9
20260901004517 76 334 2.6 8.7 0.00 0.00 0.00 48 1010.0
20260901003011 76 307 2.6 9.6 0.00 0.00 0.00 47 1010.2
20260901001514 77 261 1.7 8.7 0.00 0.00 0.00 47 1010.1
20260901000010 77 15 2.6 10.4 0.00 0.00 0.00 48 1010.1
20260831234510 77 205 3.5 7.8 0.00 0.00 0.00 48 1010.1
20260831233011 78 340 2.6 8.7 0.00 0.00 0.00 47 1010.3
20260831231511 78 340 1.7 9.6 0.00 0.00 0.00 47 1010.3
20260831230009 78 18 0.9 8.7 0.00 0.00 0.00 46 1010.5
20260831224510 78 356 0.0 8.7 0.00 0.00 0.00 47 1010.6
20260831223027 79 29 0.9 8.7 0.00 0.00 0.00 45 1010.6
20260831221611 79 334 0.0 11.3 0.00 0.00 0.00 45 1010.7
20260831220010 79 347 0.9 8.7 0.00 0.00 0.00 45 1010.8
20260831214510 79 279 1.7 9.6 0.00 0.00 0.00 44 1011.0
20260831213010 78 274 1.7 7.0 0.00 0.00 0.00 43 1011.1
20260831211532 78 330 0.9 7.8 0.00 0.00 0.00 44 1011.2
20260831210034 77 26 2.6 9.6 0.00 0.00 0.00 45 1011.3
20260831204526 77 321 0.9 7.8 0.00 0.00 0.00 45 1011.3
20260831203030 76 314 1.7 7.0 0.00 0.00 0.00 47 1011.4
20260831201529 75 302 3.5 7.8 0.00 0.00 0.00 49 1011.7
20260831200030 74 312 1.7 7.8 0.00 0.00 0.00 50 1011.8
20260831194614 74 273 0.9 7.8 0.00 0.00 0.00 51 1011.9
20260831193101 73 3 2.6 8.7 0.00 0.00 0.00 52 1012.1
20260831191559 72 266 2.6 10.4 0.00 0.00 0.00 53 1012.1
20260831190100 72 330 2.6 8.7 0.00 0.00 0.00 53 1012.1
20260831184602 72 222 1.7 8.7 0.00 0.00 0.00 55 1012.2
20260831183104 71 300 1.7 9.6 0.00 0.00 0.00 54 1012.1
20260831181614 71 347 1.7 7.0 0.00 0.00 0.00 56 1012.1
20260831180113 70 6 1.7 7.0 0.00 0.00 0.00 57 1012.1
20260831174614 71 355 0.9 5.2 0.00 0.00 0.00 56 1012.1
20260831173114 70 315 0.0 5.2 0.00 0.00 0.00 59 1012.0
20260831171517 69 278 0.9 6.1 0.00 0.00 0.00 60 1012.0
20260831170015 68 228 0.0 3.5 0.00 0.00 0.00 61 1011.9
20260831164513 67 307 0.9 6.1 0.00 0.00 0.00 64 1011.9
20260831163100 67 316 0.0 4.3 0.00 0.00 0.00 65 1011.9
20260831161604 66 271 0.0 4.3 0.00 0.00 0.00 67 1011.9
20260831160018 65 259 0.0 5.2 0.00 0.00 0.00 70 1011.9
20260831154513 64 328 0.9 4.3 0.00 0.00 0.00 71 1011.9
20260831153013 63 282 0.0 4.3 0.00 0.00 0.00 74 1011.8
20260831151529 62 332 0.0 5.2 0.00 0.00 0.00 77 1011.8
20260831150028 61 338 0.0 3.5 0.00 0.00 0.00 79 1011.7
20260831144528 59 329 0.0 0.0 0.00 0.00 0.00 83 1011.5
20260831143027 58 333 0.0 0.9 0.00 0.00 0.00 85 1011.2
20260831141531 57 342 0.0 0.0 0.00 0.00 0.00 87 1011.2
20260831140027 56 342 0.0 0.0 0.00 0.00 0.00 88 1010.9
20260831134515 56 330 0.0 0.0 0.00 0.00 0.00 88 1010.7
20260831133012 56 328 0.0 0.0 0.00 0.00 0.00 87 1010.5
20260831131512 56 317 0.0 0.0 0.00 0.00 0.00 86 1010.5
20260831130012 56 329 0.0 0.0 0.00 0.00 0.00 86 1010.3
20260831124512 57 309 0.0 1.7 0.00 0.00 0.00 85 1010.2
20260831123020 57 333 0.0 2.6 0.00 0.00 0.00 84 1010.1
20260831121513 57 351 0.0 0.9 0.00 0.00 0.00 84 1010.1
20260831120027 57 321 0.0 0.0 0.00 0.00 0.00 83 1010.1
20260831114527 57 317 0.0 0.0 0.00 0.00 0.00 82 1010.0
20260831113027 57 316 0.0 0.0 0.00 0.00 0.00 81 1010.0
20260831111536 58 284 0.0 0.0 0.00 0.00 0.00 78 1010.0
20260831110032 59 317 0.0 0.0 0.00 0.00 0.00 78 1010.0
20260831104532 60 333 0.0 2.6 0.00 0.00 0.00 76 1010.0
20260831103111 61 309 0.0 5.2 0.00 0.00 0.00 74 1010.0
20260831101512 61 347 0.9 4.3 0.00 0.00 0.00 73 1009.9
20260831100127 61 296 0.0 6.1 0.00 0.00 0.00 71 1009.8
20260831094611 61 263 0.9 5.2 0.00 0.00 0.00 71 1009.8
20260831093133 60 258 0.0 0.0 0.00 0.00 0.00 73 1009.8
20260831091611 61 258 0.0 0.0 0.00 0.00 0.00 73 1009.9
20260831090138 61 258 0.0 0.0 0.00 0.00 0.00 72 1009.8
20260831084610 61 258 0.0 0.0 0.00 0.00 0.00 72 1009.8
20260831083114 61 259 0.0 0.0 0.00 0.00 0.00 72 1009.9
20260831081611 63 253 0.0 0.0 0.00 0.00 0.00 69 1009.9
20260831080130 63 252 0.0 0.0 0.00 0.00 0.00 68 1009.9
20260831074613 63 253 0.0 0.0 0.00 0.00 0.00 67 1010.0
20260831073114 64 291 0.0 2.6 0.00 0.00 0.00 66 1009.9
20260831071614 64 278 0.0 2.6 0.00 0.00 0.00 66 1009.9
20260831070040 65 235 0.0 1.7 0.00 0.00 0.00 64 1009.8
20260831064555 66 231 0.9 4.3 0.00 0.00 0.00 64 1009.8
20260831063109 66 247 1.7 4.3 0.00 0.00 0.00 63 1009.8
20260831061555 66 223 0.0 2.6 0.00 0.00 0.00 64 1010.0
20260831060058 67 267 0.0 2.6 0.00 0.00 0.00 63 1010.0
20260831054555 68 262 0.0 1.7 0.00 0.00 0.00 62 1009.9
20260831053126 68 245 0.0 2.6 0.00 0.00 0.00 60 1009.9
20260831051554 68 261 0.0 0.0 0.00 0.00 0.00 60 1009.9
20260831050057 69 298 0.0 0.0 0.00 0.00 0.00 58 1009.8
20260831044640 70 307 0.0 0.9 0.00 0.00 0.00 56 1009.7
20260831043056 71 4 0.0 0.0 0.00 0.00 0.00 54 1009.6
20260831041550 72 360 0.0 0.9 0.00 0.00 0.00 52 1009.5
20260831040050 74 328 0.0 3.5 0.00 0.00 0.00 46 1009.3
20260831034549 75 337 0.0 1.7 0.00 0.00 0.00 42 1009.1
20260831033105 76 338 0.0 4.3 0.00 0.00 0.00 42 1009.0
20260831031552 77 7 0.0 5.2 0.00 0.00 0.00 40 1008.8
20260831030051 79 330 0.0 2.6 0.00 0.00 0.00 38 1008.7
20260831024550 81 308 0.0 2.6 0.00 0.00 0.00 34 1008.7
20260831023055 83 340 0.0 3.5 0.00 0.00 0.00 33 1008.6
20260831021515 86 338 0.0 3.5 0.00 0.00 0.00 29 1008.5
20260831020009 88 347 0.0 6.1 0.00 0.00 0.00 29 1008.5
20260831014524 89 350 1.7 5.2 0.00 0.00 0.00 29 1008.5
20260831013024 90 10 0.9 5.2 0.00 0.00 0.00 29 1008.5